Location: Unspecified
(43.4354°N, 0.0000°E)
Time: 12:30:01
(UTC+00:00)

S-56A Canister/Altair - Pass Details

Date: 02 July 2019
Orbit: 633 x 2499 km, 38.9° (Epoch: 19 August)

Event Time Altitude Azimuth Distance (km) Brightness Sun altitude
Rises 16:15:36 0° 274° (W) 5,559 12.9 35.0°
Reaches altitude 10° 16:19:44 10° 272° (W) 4,294 12.8 34.2°
Maximum altitude 16:30:20 58° 197° (SSW) 1,585 9.7 32.3°
Drops below altitude 10° 16:37:16 10° 120° (ESE) 2,868 10.1 31.1°
Sets 16:39:32 0° 116° (ESE) 3,629 10.5 30.7°
